When you browse on this site, cookies collect data to enhance your experience and personalize the content and advertising you see.
Visit our Privacy Policy to learn more. By continuing to use the site, you agree to this use of cookies and data.
  • In Latvia
  • List of Countries
  • For 7 days
  • Water Temperature
  • Weather Map
  • Weather Widgets
  • user-avatar
    Login

    Hourly Weather Trzebnica

    Today, 25 May, Monday

    Time Temperature Precipitation Wind Pressure Humidity
    00:00 +9°C° 0 mm 3 mps 752 mmHg 92%
    01:00 +9°C° 0 mm 3 mps 751 mmHg 93%
    02:00 +8°C° 0.2 mm 4 mps 751 mmHg 93%
    03:00 +8°C° 0.2 mm 4 mps 751 mmHg 94%
    04:00 +8°C° 0.2 mm 5 mps 751 mmHg 95%
    05:00 +8°C° 0.1 mm 5 mps 751 mmHg 93%
    06:00 +9°C° 0.1 mm 5 mps 751 mmHg 90%
    07:00 +10°C° 0 mm 4 mps 752 mmHg 88%
    08:00 +10°C° 0.3 mm 4 mps 752 mmHg 88%
    09:00 +10°C° 0.3 mm 4 mps 752 mmHg 87%
    10:00 +11°C° 0.3 mm 4 mps 752 mmHg 87%
    11:00 +12°C° 0.6 mm 4 mps 752 mmHg 84%
    12:00 +12°C° 0.6 mm 4 mps 752 mmHg 81%
    13:00 +13°C° 0 mm 4 mps 752 mmHg 77%
    14:00 +14°C° 0.6 mm 4 mps 752 mmHg 77%
    15:00 +14°C° 0.6 mm 5 mps 752 mmHg 77%
    16:00 +14°C° 0.6 mm 5 mps 752 mmHg 77%
    17:00 +13°C° 0.3 mm 4 mps 752 mmHg 81%
    18:00 +12°C° 0.3 mm 4 mps 753 mmHg 85%
    19:00 +12°C° 0.3 mm 3 mps 753 mmHg 89%
    20:00 +11°C° 0.1 mm 3 mps 754 mmHg 91%
    21:00 +10°C° 0.1 mm 3 mps 754 mmHg 93%
    22:00 +9°C° 0.1 mm 3 mps 754 mmHg 95%
    23:00 +9°C° 0 mm 3 mps 755 mmHg 96%

    Tomorrow, 26 May, Tuesday

    Time Temperature Precipitation Wind Pressure Humidity
    00:00 +8°C° 0 mm 3 mps 755 mmHg 96%
    01:00 +8°C° 0 mm 3 mps 755 mmHg 97%
    02:00 +7°C° 0 mm 3 mps 755 mmHg 97%
    03:00 +7°C° 0 mm 3 mps 755 mmHg 97%
    04:00 +5°C° 0 mm 3 mps 756 mmHg 97%
    05:00 +8°C° 0 mm 3 mps 756 mmHg 96%
    06:00 +9°C° 0 mm 3 mps 756 mmHg 94%
    07:00 +10°C° 0 mm 3 mps 757 mmHg 92%
    08:00 +11°C° 0.1 mm 4 mps 757 mmHg 87%
    09:00 +12°C° 0.1 mm 4 mps 757 mmHg 82%
    10:00 +13°C° 0.1 mm 4 mps 757 mmHg 77%
    11:00 +14°C° 0.3 mm 4 mps 757 mmHg 73%
    12:00 +15°C° 0.3 mm 5 mps 757 mmHg 69%
    13:00 +16°C° 0.3 mm 5 mps 756 mmHg 65%
    14:00 +16°C° 0.2 mm 5 mps 756 mmHg 65%
    15:00 +16°C° 0.2 mm 5 mps 756 mmHg 65%
    16:00 +17°C° 0.2 mm 5 mps 756 mmHg 65%
    17:00 +17°C° 0.1 mm 4 mps 756 mmHg 70%
    18:00 +16°C° 0.1 mm 3 mps 756 mmHg 76%
    19:00 +15°C° 0.1 mm 2 mps 756 mmHg 81%
    20:00 +14°C° 0 mm 2 mps 757 mmHg 84%
    21:00 +12°C° 0 mm 2 mps 757 mmHg 86%
    22:00 +10°C° 0 mm 2 mps 757 mmHg 89%
    23:00 +10°C° 0 mm 2 mps 757 mmHg 90%

    Day after tomorrow, 27 May, Wednesday

    Time Temperature Precipitation Wind Pressure Humidity
    00:00 +9°C° 0 mm 2 mps 757 mmHg 91%
    01:00 +8°C° 0 mm 2 mps 757 mmHg 93%
    02:00 +8°C° 0 mm 2 mps 757 mmHg 93%
    03:00 +7°C° 0 mm 2 mps 757 mmHg 93%
    04:00 +7°C° 0 mm 2 mps 757 mmHg 93%
    05:00 +8°C° 0 mm 2 mps 757 mmHg 89%
    06:00 +10°C° 0 mm 2 mps 757 mmHg 84%
    07:00 +11°C° 0 mm 3 mps 757 mmHg 79%
    08:00 +13°C° 0 mm 3 mps 757 mmHg 74%
    09:00 +16°C° 0 mm 3 mps 757 mmHg 69%
    10:00 +17°C° 0 mm 3 mps 757 mmHg 63%
    11:00 +18°C° 0 mm 3 mps 756 mmHg 61%
    12:00 +18°C° 0 mm 3 mps 756 mmHg 59%
    13:00 +19°C° 0 mm 3 mps 755 mmHg 56%
    14:00 +19°C° 0 mm 3 mps 755 mmHg 56%
    15:00 +19°C° 0 mm 3 mps 755 mmHg 56%
    16:00 +19°C° 0 mm 3 mps 754 mmHg 55%
    17:00 +18°C° 0 mm 2 mps 754 mmHg 60%
    18:00 +18°C° 0 mm 1 mps 754 mmHg 65%
    19:00 +15°C° 0 mm 1 mps 754 mmHg 70%
    20:00 +14°C° 0 mm 1 mps 754 mmHg 70%
    21:00 +13°C° 0 mm 1 mps 754 mmHg 70%
    22:00 +12°C° 0 mm 1 mps 754 mmHg 70%
    23:00 +12°C° 0.3 mm 2 mps 754 mmHg 75%

    28 May, Thursday

    Time Temperature Precipitation Wind Pressure Humidity
    00:00 +12°C° 0.3 mm 2 mps 754 mmHg 81%
    01:00 +11°C° 0.3 mm 3 mps 754 mmHg 86%
    02:00 +11°C° 0.2 mm 3 mps 754 mmHg 88%
    03:00 +10°C° 0.2 mm 3 mps 754 mmHg 90%
    04:00 +8°C° 0.2 mm 4 mps 754 mmHg 92%
    05:00 +10°C° 0 mm 4 mps 754 mmHg 89%
    06:00 +10°C° 0 mm 4 mps 754 mmHg 86%
    07:00 +10°C° 0 mm 5 mps 754 mmHg 83%
    08:00 +12°C° 0 mm 5 mps 754 mmHg 76%
    09:00 +13°C° 0 mm 5 mps 754 mmHg 69%
    10:00 +14°C° 0 mm 6 mps 753 mmHg 63%
    11:00 +15°C° 0 mm 6 mps 753 mmHg 60%
    12:00 +16°C° 0 mm 6 mps 753 mmHg 58%
    13:00 +17°C° 0 mm 6 mps 752 mmHg 56%
    14:00 +17°C° 0.1 mm 5 mps 752 mmHg 58%
    15:00 +17°C° 0.1 mm 5 mps 752 mmHg 59%
    16:00 +17°C° 0.1 mm 5 mps 752 mmHg 60%
    17:00 +15°C° 0.2 mm 5 mps 752 mmHg 67%
    18:00 +14°C° 0.2 mm 4 mps 752 mmHg 73%
    19:00 +13°C° 0.2 mm 3 mps 752 mmHg 79%
    20:00 +11°C° 0 mm 3 mps 752 mmHg 82%
    21:00 +10°C° 0 mm 3 mps 753 mmHg 85%
    22:00 +9°C° 0 mm 2 mps 753 mmHg 88%
    23:00 +8°C° 0 mm 2 mps 753 mmHg 88%

    29 May, Friday

    Time Temperature Precipitation Wind Pressure Humidity
    00:00 +7°C° 0 mm 2 mps 753 mmHg 87%
    01:00 +6°C° 0 mm 2 mps 753 mmHg 86%
    02:00 +5°C° 0 mm 2 mps 753 mmHg 87%
    03:00 +5°C° 0 mm 2 mps 753 mmHg 88%
    04:00 +4°C° 0 mm 2 mps 753 mmHg 89%
    05:00 +6°C° 0 mm 2 mps 753 mmHg 82%
    06:00 +8°C° 0 mm 2 mps 753 mmHg 76%
    07:00 +9°C° 0 mm 2 mps 753 mmHg 70%
    08:00 +11°C° 0 mm 3 mps 753 mmHg 64%
    09:00 +12°C° 0 mm 3 mps 753 mmHg 57%
    10:00 +13°C° 0 mm 3 mps 753 mmHg 51%
    11:00 +14°C° 0.1 mm 3 mps 752 mmHg 52%
    12:00 +14°C° 0.1 mm 4 mps 752 mmHg 53%
    13:00 +14°C° 0.1 mm 4 mps 752 mmHg 54%
    14:00 +14°C° 0.5 mm 4 mps 751 mmHg 60%
    15:00 +13°C° 0.5 mm 4 mps 751 mmHg 65%
    16:00 +13°C° 0.5 mm 4 mps 750 mmHg 71%
    17:00 +12°C° 0.4 mm 4 mps 750 mmHg 76%
    18:00 +11°C° 0.4 mm 3 mps 750 mmHg 80%
    19:00 +12°C° 0.4 mm 2 mps 750 mmHg 85%
    20:00 +10°C° 0 mm 2 mps 750 mmHg 86%
    21:00 +9°C° 0 mm 2 mps 750 mmHg 88%
    22:00 +8°C° 0 mm 2 mps 751 mmHg 90%
    23:00 +7°C° 0 mm 2 mps 751 mmHg 89%

    30 May, Saturday

    Time Temperature Precipitation Wind Pressure Humidity
    00:00 +6°C° 0 mm 2 mps 751 mmHg 89%
    01:00 +6°C° 0 mm 2 mps 750 mmHg 88%
    02:00 +6°C° 0 mm 2 mps 750 mmHg 89%
    03:00 +5°C° 0 mm 2 mps 750 mmHg 91%
    04:00 +5°C° 0 mm 2 mps 750 mmHg 92%
    05:00 +5°C° 0 mm 3 mps 750 mmHg 89%
    06:00 +6°C° 0 mm 4 mps 750 mmHg 86%
    07:00 +7°C° 0 mm 4 mps 750 mmHg 84%
    08:00 +7°C° 0.2 mm 4 mps 750 mmHg 86%
    09:00 +7°C° 0.2 mm 4 mps 750 mmHg 88%
    10:00 +7°C° 0.2 mm 4 mps 750 mmHg 91%
    11:00 +7°C° 0.1 mm 4 mps 750 mmHg 90%
    12:00 +8°C° 0.1 mm 4 mps 750 mmHg 89%
    13:00 +10°C° 0.1 mm 4 mps 750 mmHg 87%
    14:00 +10°C° 0 mm 4 mps 749 mmHg 88%
    15:00 +10°C° 0 mm 4 mps 749 mmHg 89%
    16:00 +11°C° 0 mm 3 mps 749 mmHg 89%
    17:00 +11°C° 0 mm 3 mps 749 mmHg 90%
    18:00 +11°C° 0 mm 3 mps 749 mmHg 91%
    19:00 +11°C° 0 mm 3 mps 749 mmHg 92%
    20:00 +11°C° 0.1 mm 3 mps 749 mmHg 94%
    21:00 +10°C° 0.1 mm 3 mps 749 mmHg 95%
    22:00 +10°C° 0.1 mm 3 mps 749 mmHg 96%
    23:00 +9°C° 0 mm 3 mps 748 mmHg 96%
    Show more